Vertical_Velocity
1 -4 5 5 5 2 3 8 3 5 14 9 1 1 2 4 5 2 4 -2 1 3
2 2 11 5 1 9 -4 0 4 7 14 -2 18 8 2 6 4 5 6 3 1 -1
-3 6 -2 7 -3 8 4 1 3 3 3 6 9 1 17 5 5 2 3 5 3 3
0 6 3 7 5 11 -1 8 10 8 -1 4 -2 3 5 12 7 6 4 3 5 0
-5 -0 -2 -0 3 6 3 -0 10 5 5 -1 -3 -3 6 10 8 9 5 5 5 5
-1 -1 -2 -2 -10 -1 1 11 3 5 2 8 3 -8 -10 10 3 11 7 3 4 4
2 -0 -2 -3 -0 2 5 -4 -1 -2 3 6 11 4 3 -5 -17 1 5 4 3 2
0 -0 1 2 0 -3 -3 1 0 -2 -1 -2 -2 -12 9 12 9 10 -2 -9 -14 -8
0 -2 -1 1 2 3 2 -0 -3 -1 2 2 -0 5 8 2 3 -2 -3 1 7 0
-0 -1 0 -1 -2 -1 1 3 2 2 1 -1 1 3 3 0 -1 -1 -1 0 -3 1
-4 -1 -0 -0 1 1 -1 -0 1 1 2 1 2 2 2 2 -1 -1 1 -1 0 -0
-1 -2 -3 -2 0 -1 1 1 1 -2 -1 -1 -0 2 3 3 1 1 -1 -1 1 1
-4 -2 -2 -3 -2 -0 -0 -1 -1 -1 -1 -0 -2 -0 0 1 -1 1 0 -1 -3 -4
-1 -4 -5 -2 -3 -4 -2 -2 1 1 2 0 0 -1 -0 -0 0 0 0 1 1 -1
Height
2973 2977 2981 2985 2987 2992 2997 3000 3005 3007 3008 3016 3024 3032 3034 3041 3048 3052 3057 3061 3065 3068
2965 2969 2972 2975 2978 2983 2986 2991 2993 2998 2999 3002 3009 3015 3022 3030 3037 3041 3046 3050 3054 3059
2959 2963 2966 2967 2971 2974 2979 2981 2984 2988 2989 2993 2997 3002 3012 3020 3025 3030 3035 3040 3045 3049
2952 2955 2959 2959 2966 2967 2970 2972 2974 2978 2981 2983 2988 2995 3003 3010 3014 3019 3024 3029 3033 3038
2950 2951 2953 2956 2957 2959 2965 2967 2969 2971 2975 2977 2980 2986 2993 3001 3004 3009 3013 3018 3023 3028
2945 2946 2949 2950 2953 2955 2957 2959 2962 2966 2970 2975 2976 2978 2983 2990 2994 2999 3003 3007 3012 3017
2942 2942 2943 2945 2948 2949 2951 2953 2955 2958 2964 2967 2970 2973 2979 2981 2984 2988 2991 2996 3000 3006
2938 2939 2940 2940 2941 2942 2944 2946 2949 2951 2955 2957 2960 2966 2972 2975 2979 2982 2983 2988 2993 2999
2932 2933 2934 2935 2936 2937 2937 2938 2940 2944 2946 2949 2952 2957 2958 2960 2964 2968 2973 2979 2982 2987
2925 2925 2926 2927 2928 2930 2931 2933 2934 2935 2937 2939 2942 2946 2948 2950 2953 2956 2960 2964 2968 2973
2918 2917 2917 2918 2918 2919 2921 2923 2925 2926 2928 2930 2933 2936 2938 2940 2941 2944 2947 2950 2954 2958
2908 2908 2909 2909 2909 2910 2910 2911 2913 2915 2917 2919 2922 2925 2927 2929 2930 2932 2935 2939 2942 2945
2896 2897 2898 2898 2898 2899 2899 2900 2901 2903 2905 2907 2909 2912 2915 2918 2919 2921 2923 2925 2928 2931
2884 2885 2885 2886 2886 2887 2888 2888 2890 2891 2892 2894 2896 2899 2903 2905 2906 2908 2910 2912 2915 2918